When you browse on this site, cookies collect data to enhance your experience and personalize the content and advertising you see.
Visit our Privacy Policy to learn more. By continuing to use the site, you agree to this use of cookies and data.
  • en Suisse
  • Liste des pays
  • À 7 jours
  • Température de l'eau
  • Carte météo
  • Widgets météo
  • user-avatar
    Se connecter

    Météo par heure à Pomogaylovo

    Ce jour, 20 Août, Mardi

    Heure Température Précipitation Vent Pression Humidité
    00:00 +17°C° 0 mm 2 m/s 743 mmHg 89%
    01:00 +17°C° 0 mm 2 m/s 744 mmHg 89%
    02:00 +17°C° 0 mm 2 m/s 744 mmHg 90%
    03:00 +16°C° 0.2 mm 2 m/s 744 mmHg 91%
    04:00 +16°C° 0.2 mm 2 m/s 744 mmHg 92%
    05:00 +16°C° 0.2 mm 2 m/s 744 mmHg 93%
    06:00 +17°C° 0.6 mm 2 m/s 745 mmHg 91%
    07:00 +18°C° 0.6 mm 2 m/s 745 mmHg 90%
    08:00 +19°C° 0.6 mm 2 m/s 745 mmHg 89%
    09:00 +20°C° 0 mm 2 m/s 745 mmHg 85%
    10:00 +23°C° 0 mm 2 m/s 745 mmHg 82%
    11:00 +24°C° 0 mm 1 m/s 746 mmHg 78%
    12:00 +25°C° 1 mm 1 m/s 746 mmHg 79%
    13:00 +25°C° 1 mm 1 m/s 746 mmHg 81%
    14:00 +26°C° 1 mm 1 m/s 746 mmHg 82%
    15:00 +25°C° 0.7 mm 1 m/s 746 mmHg 83%
    16:00 +25°C° 0.7 mm 1 m/s 746 mmHg 85%
    17:00 +22°C° 0.7 mm 0 m/s 746 mmHg 86%
    18:00 +21°C° 0.2 mm 0 m/s 746 mmHg 88%
    19:00 +20°C° 0.2 mm 0 m/s 746 mmHg 90%
    20:00 +19°C° 0.2 mm 0 m/s 746 mmHg 92%
    21:00 +18°C° 0 mm 0 m/s 746 mmHg 92%
    22:00 +18°C° 0 mm 0 m/s 746 mmHg 93%
    23:00 +18°C° 0 mm 0 m/s 746 mmHg 94%

    Demain, 21 Août, Mercredi

    Heure Température Précipitation Vent Pression Humidité
    00:00 +17°C° 0 mm 0 m/s 746 mmHg 94%
    01:00 +19°C° 0 mm 1 m/s 746 mmHg 94%
    02:00 +19°C° 0 mm 1 m/s 747 mmHg 95%
    03:00 +19°C° 0.6 mm 1 m/s 746 mmHg 95%
    04:00 +19°C° 0.6 mm 1 m/s 746 mmHg 96%
    05:00 +19°C° 0.6 mm 1 m/s 746 mmHg 97%
    06:00 +20°C° 0.2 mm 1 m/s 746 mmHg 95%
    07:00 +20°C° 0.2 mm 1 m/s 746 mmHg 94%
    08:00 +20°C° 0.2 mm 2 m/s 746 mmHg 93%
    09:00 +21°C° 0 mm 2 m/s 746 mmHg 88%
    10:00 +24°C° 0 mm 2 m/s 746 mmHg 83%
    11:00 +25°C° 0 mm 2 m/s 746 mmHg 78%
    12:00 +26°C° 0 mm 3 m/s 746 mmHg 74%
    13:00 +27°C° 0 mm 3 m/s 746 mmHg 69%
    14:00 +28°C° 0 mm 4 m/s 746 mmHg 65%
    15:00 +27°C° 0.6 mm 3 m/s 745 mmHg 71%
    16:00 +26°C° 0.6 mm 3 m/s 745 mmHg 77%
    17:00 +25°C° 0.6 mm 3 m/s 744 mmHg 84%
    18:00 +24°C° 0.4 mm 3 m/s 744 mmHg 86%
    19:00 +23°C° 0.4 mm 2 m/s 744 mmHg 89%
    20:00 +21°C° 0.4 mm 2 m/s 744 mmHg 91%
    21:00 +20°C° 0.3 mm 2 m/s 744 mmHg 92%
    22:00 +20°C° 0.3 mm 2 m/s 744 mmHg 92%
    23:00 +19°C° 0.3 mm 2 m/s 744 mmHg 93%

    Après-demain, 22 Août, Jeudi

    Heure Température Précipitation Vent Pression Humidité
    00:00 +19°C° 0.4 mm 2 m/s 744 mmHg 94%
    01:00 +19°C° 0.4 mm 2 m/s 744 mmHg 94%
    02:00 +18°C° 0.4 mm 2 m/s 745 mmHg 95%
    03:00 +17°C° 0.3 mm 3 m/s 745 mmHg 96%
    04:00 +17°C° 0.3 mm 3 m/s 745 mmHg 96%
    05:00 +15°C° 0.3 mm 4 m/s 745 mmHg 97%
    06:00 +15°C° 0.2 mm 4 m/s 745 mmHg 95%
    07:00 +14°C° 0.2 mm 4 m/s 746 mmHg 94%
    08:00 +14°C° 0.2 mm 4 m/s 746 mmHg 93%
    09:00 +15°C° 0 mm 4 m/s 747 mmHg 87%
    10:00 +18°C° 0 mm 4 m/s 747 mmHg 81%
    11:00 +19°C° 0 mm 4 m/s 747 mmHg 75%
    12:00 +20°C° 0 mm 3 m/s 747 mmHg 70%
    13:00 +21°C° 0 mm 3 m/s 748 mmHg 66%
    14:00 +22°C° 0 mm 3 m/s 748 mmHg 61%
    15:00 +21°C° 0 mm 3 m/s 748 mmHg 64%
    16:00 +21°C° 0 mm 2 m/s 748 mmHg 68%
    17:00 +21°C° 0 mm 2 m/s 748 mmHg 71%
    18:00 +19°C° 0 mm 2 m/s 748 mmHg 75%
    19:00 +17°C° 0 mm 2 m/s 748 mmHg 79%
    20:00 +15°C° 0 mm 2 m/s 748 mmHg 83%
    21:00 +15°C° 0 mm 2 m/s 748 mmHg 83%
    22:00 +14°C° 0 mm 2 m/s 748 mmHg 83%
    23:00 +14°C° 0 mm 2 m/s 749 mmHg 83%

    23 Août, Vendredi

    Heure Température Précipitation Vent Pression Humidité
    00:00 +13°C° 0 mm 2 m/s 749 mmHg 84%
    01:00 +12°C° 0 mm 2 m/s 749 mmHg 85%
    02:00 +12°C° 0 mm 1 m/s 749 mmHg 87%
    03:00 +11°C° 0 mm 1 m/s 749 mmHg 88%
    04:00 +11°C° 0 mm 1 m/s 749 mmHg 89%
    05:00 +10°C° 0 mm 1 m/s 749 mmHg 90%
    06:00 +12°C° 0 mm 1 m/s 749 mmHg 84%
    07:00 +14°C° 0 mm 1 m/s 749 mmHg 78%
    08:00 +16°C° 0 mm 1 m/s 749 mmHg 72%
    09:00 +19°C° 0 mm 1 m/s 750 mmHg 66%
    10:00 +20°C° 0 mm 1 m/s 750 mmHg 61%
    11:00 +22°C° 0 mm 1 m/s 750 mmHg 56%
    12:00 +22°C° 0 mm 1 m/s 750 mmHg 54%
    13:00 +21°C° 0 mm 2 m/s 750 mmHg 53%
    14:00 +23°C° 0 mm 2 m/s 750 mmHg 51%
    15:00 +21°C° 0 mm 2 m/s 749 mmHg 57%
    16:00 +21°C° 0 mm 2 m/s 749 mmHg 62%
    17:00 +21°C° 0 mm 2 m/s 749 mmHg 67%
    18:00 +19°C° 0 mm 2 m/s 749 mmHg 72%
    19:00 +17°C° 0 mm 2 m/s 749 mmHg 78%
    20:00 +15°C° 0 mm 1 m/s 749 mmHg 83%
    21:00 +14°C° 0 mm 1 m/s 749 mmHg 85%
    22:00 +14°C° 0 mm 1 m/s 749 mmHg 88%
    23:00 +13°C° 0 mm 1 m/s 750 mmHg 91%

    24 Août, Samedi

    Heure Température Précipitation Vent Pression Humidité
    00:00 +13°C° 0 mm 1 m/s 750 mmHg 91%
    01:00 +13°C° 0 mm 1 m/s 750 mmHg 92%
    02:00 +12°C° 0 mm 1 m/s 750 mmHg 93%
    03:00 +12°C° 0 mm 1 m/s 750 mmHg 93%
    04:00 +12°C° 0 mm 1 m/s 750 mmHg 93%
    05:00 +12°C° 0 mm 1 m/s 750 mmHg 93%
    06:00 +14°C° 0 mm 1 m/s 750 mmHg 87%
    07:00 +15°C° 0 mm 1 m/s 750 mmHg 81%
    08:00 +18°C° 0 mm 1 m/s 750 mmHg 76%
    09:00 +19°C° 0 mm 1 m/s 750 mmHg 70%
    10:00 +20°C° 0 mm 2 m/s 750 mmHg 64%
    11:00 +21°C° 0 mm 2 m/s 750 mmHg 58%
    12:00 +21°C° 0 mm 2 m/s 750 mmHg 58%
    13:00 +23°C° 0 mm 2 m/s 750 mmHg 57%
    14:00 +23°C° 0 mm 2 m/s 749 mmHg 56%
    15:00 +23°C° 0 mm 2 m/s 749 mmHg 61%
    16:00 +21°C° 0 mm 2 m/s 749 mmHg 66%
    17:00 +21°C° 0 mm 2 m/s 749 mmHg 70%
    18:00 +19°C° 0 mm 2 m/s 748 mmHg 77%
    19:00 +17°C° 0 mm 2 m/s 748 mmHg 84%
    20:00 +16°C° 0 mm 2 m/s 748 mmHg 90%
    21:00 +15°C° 0 mm 2 m/s 748 mmHg 92%
    22:00 +15°C° 0 mm 2 m/s 748 mmHg 93%
    23:00 +14°C° 0 mm 2 m/s 748 mmHg 94%

    25 Août, Dimanche

    Heure Température Précipitation Vent Pression Humidité
    00:00 +14°C° 0 mm 2 m/s 748 mmHg 93%
    01:00 +14°C° 0 mm 2 m/s 748 mmHg 93%
    02:00 +13°C° 0 mm 2 m/s 748 mmHg 93%
    03:00 +13°C° 0 mm 2 m/s 748 mmHg 93%
    04:00 +13°C° 0 mm 2 m/s 748 mmHg 94%
    05:00 +12°C° 0 mm 2 m/s 748 mmHg 94%
    06:00 +14°C° 0 mm 2 m/s 748 mmHg 89%
    07:00 +16°C° 0 mm 2 m/s 748 mmHg 84%
    08:00 +17°C° 0 mm 2 m/s 747 mmHg 79%
    09:00 +19°C° 0 mm 3 m/s 747 mmHg 74%
    10:00 +20°C° 0 mm 3 m/s 747 mmHg 69%
    11:00 +22°C° 0 mm 3 m/s 747 mmHg 64%
    12:00 +22°C° 0 mm 3 m/s 747 mmHg 63%
    13:00 +24°C° 0 mm 3 m/s 747 mmHg 62%
    14:00 +24°C° 0 mm 3 m/s 747 mmHg 61%
    15:00 +22°C° 0.1 mm 3 m/s 747 mmHg 66%
    16:00 +23°C° 0.1 mm 2 m/s 746 mmHg 71%
    17:00 +21°C° 0.1 mm 2 m/s 746 mmHg 76%
    18:00 +20°C° 0 mm 2 m/s 746 mmHg 81%
    19:00 +19°C° 0 mm 1 m/s 746 mmHg 86%
    20:00 +16°C° 0 mm 1 m/s 746 mmHg 91%
    21:00 +16°C° 0 mm 1 m/s 746 mmHg 92%
    22:00 +15°C° 0 mm 1 m/s 746 mmHg 92%
    23:00 +15°C° 0 mm 1 m/s 747 mmHg 93%
    Voir plus